Le nostre stazioni meteo in Italia

Pubblicità
Il mio iltempo24.it
Ustica, Italia (16400): Temperatura & dewpoint: 20.08.2019 12:00:00 - 26.08.2019 12:00:00 (CEST)Ustica, Italia (16400): velocità del vento: 20.08.2019 12:00:00 - 26.08.2019 12:00:00 (CEST)Ustica, Italia (16400): direzione del vento: 20.08.2019 12:00:00 - 26.08.2019 12:00:00 (CEST)Ustica, Italia (16400): reduced air pressure: 20.08.2019 12:00:00 - 26.08.2019 12:00:00 (CEST)Ustica, Italia (16400): visibility: 20.08.2019 12:00:00 - 26.08.2019 12:00:00 (CEST)Ustica, Italia (16400): ore di luce: 20.08.2019 12:00:00 - 26.08.2019 12:00:00 (CEST)
Data & Tempo tt [°C] td [°C] ff [km/h] ff [kn] dd ppp [hPa] vv [km] sd [min]
26.08.2019 12:00:00 - - - - - - - -
26.08.2019 11:00:00 28,8 25,4 8 4 N 1017,4 20 60
26.08.2019 10:00:00 28,4 24,6 8 4 SE 1017,8 20 60
26.08.2019 09:00:00 27,0 24,5 4 2 N 1017,5 20 60
26.08.2019 08:00:00 25,0 22,9 5 3 ESE 1017,5 20 -
26.08.2019 07:00:00 - - - - - - - -
26.08.2019 06:00:00 - - - - - - - -
26.08.2019 05:00:00 - - - - - - - -
26.08.2019 04:00:00 - - - - - - - -
26.08.2019 03:00:00 - - - - - - - -
26.08.2019 02:00:00 - - - - - - - -
26.08.2019 01:00:00 - - - - - - - -
26.08.2019 00:00:00 - - - - - - - -
25.08.2019 23:00:00 - - - - - - - -
25.08.2019 22:00:00 - - - - - - - -
25.08.2019 21:00:00 - - - - - - - -
25.08.2019 20:00:00 25,8 22,9 4 2 N 1016,6 20 18
25.08.2019 19:00:00 26,8 22,7 4 2 N 1016,2 20 60
25.08.2019 18:00:00 30,0 25,5 5 3 N 1015,7 20 60
25.08.2019 17:00:00 30,6 23,9 8 4 N 1015,7 20 60
25.08.2019 16:00:00 31,0 24,4 8 4 N 1015,9 20 60
25.08.2019 15:00:00 30,8 23,5 8 4 N 1016,2 20 60
25.08.2019 14:00:00 30,4 23,6 4 2 N 1016,6 20 60
25.08.2019 13:00:00 - - - - - - - -
25.08.2019 12:00:00 28,0 24,0 4 2 N 1017,6 20 60
25.08.2019 11:00:00 28,4 24,4 4 2 - 1017,6 20 48
25.08.2019 10:00:00 28,0 23,8 5 3 N 1017,3 20 60
25.08.2019 09:00:00 25,8 22,2 5 3 SSO 1017,3 20 60
25.08.2019 08:00:00 25,4 22,5 2 1 N 1017,2 20 54
25.08.2019 07:00:00 - - - - - - - -
25.08.2019 06:00:00 - - - - - - - -
25.08.2019 05:00:00 - - - - - - - -
25.08.2019 04:00:00 - - - - - - - -
25.08.2019 03:00:00 - - - - - - - -
25.08.2019 02:00:00 - - - - - - - -
25.08.2019 01:00:00 - - - - - - - -
25.08.2019 00:00:00 - - - - - - - -
24.08.2019 23:00:00 - - - - - - - -
24.08.2019 22:00:00 - - - - - - - -
24.08.2019 21:00:00 - - - - - - - -
24.08.2019 20:00:00 26,4 23,3 8 4 S 1016,4 20 12
24.08.2019 19:00:00 27,4 23,3 9 5 SSO 1015,9 20 60
24.08.2019 18:00:00 29,6 25,1 5 3 N 1016,3 20 60
24.08.2019 17:00:00 29,4 24,7 8 4 SSE 1016,4 20 60
24.08.2019 16:00:00 30,2 24,1 4 2 N 1016,6 20 60
24.08.2019 15:00:00 30,2 23,6 9 5 SE 1016,9 20 60
24.08.2019 14:00:00 29,8 24,2 9 5 - 1017,4 20 48
24.08.2019 13:00:00 28,6 -30,0 8 4 E 1012,7 20 18
24.08.2019 12:00:00 29,2 25,8 9 5 N 1017,5 20 42
24.08.2019 11:00:00 28,2 24,2 8 4 - 1018,1 20 36
24.08.2019 10:00:00 29,0 25,6 5 3 N 1017,8 20 36
24.08.2019 09:00:00 25,6 22,0 4 2 N 1017,8 20 36
24.08.2019 08:00:00 25,0 21,7 5 3 OSO 1017,8 20 6
24.08.2019 07:00:00 - - - - - - - -
24.08.2019 06:00:00 - - - - - - - -
24.08.2019 05:00:00 - - - - - - - -
24.08.2019 04:00:00 - - - - - - - -
24.08.2019 03:00:00 - - - - - - - -
24.08.2019 02:00:00 - - - - - - - -
24.08.2019 01:00:00 - - - - - - - -
24.08.2019 00:00:00 - - - - - - - -
23.08.2019 23:00:00 - - - - - - - -
23.08.2019 22:00:00 - - - - - - - -
23.08.2019 21:00:00 - - - - - - - -
23.08.2019 20:00:00 27,0 24,8 4 2 N 1018,0 20 12
23.08.2019 19:00:00 27,2 24,1 4 2 N 1017,6 20 60
23.08.2019 18:00:00 28,8 22,8 5 3 N 1017,0 20 60
23.08.2019 17:00:00 29,4 25,2 5 3 N 1017,1 20 60
23.08.2019 16:00:00 30,0 23,9 5 3 NNE 1017,3 20 60
23.08.2019 15:00:00 30,4 22,3 5 3 N 1017,8 20 60
23.08.2019 14:00:00 30,2 22,1 5 3 E 1018,1 20 60
23.08.2019 13:00:00 28,8 25,6 9 5 N 1018,5 20 48
23.08.2019 12:00:00 28,6 25,1 11 6 SE 1018,7 20 42
23.08.2019 11:00:00 27,0 24,0 11 6 SE 1019,0 20 18
23.08.2019 10:00:00 26,2 23,3 5 3 N 1018,9 20 0
23.08.2019 09:00:00 26,6 23,5 11 6 ESE 1018,5 20 12
23.08.2019 08:00:00 25,8 23,1 21 11 ESE 1018,2 20 42
23.08.2019 07:00:00 - - - - - - - -
23.08.2019 06:00:00 - - - - - - - -
23.08.2019 05:00:00 - - - - - - - -
23.08.2019 04:00:00 - - - - - - - -
23.08.2019 03:00:00 - - - - - - - -
23.08.2019 02:00:00 - - - - - - - -
23.08.2019 01:00:00 - - - - - - - -
23.08.2019 00:00:00 - - - - - - - -
22.08.2019 23:00:00 - - - - - - - -
22.08.2019 22:00:00 - - - - - - - -
22.08.2019 21:00:00 - - - - - - - -
22.08.2019 20:00:00 26,2 24,1 5 3 NNE 1017,7 20 18
22.08.2019 19:00:00 27,4 24,9 5 3 N 1017,8 20 60
22.08.2019 18:00:00 28,8 23,4 8 4 N 1017,6 20 60
22.08.2019 17:00:00 29,6 24,0 9 5 N 1017,7 20 60
22.08.2019 16:00:00 30,4 25,9 9 5 N 1017,4 20 60
22.08.2019 15:00:00 30,6 25,0 9 5 N 1018,1 20 60
22.08.2019 14:00:00 30,4 25,1 5 3 NNE 1018,4 20 60
22.08.2019 13:00:00 30,4 26,2 8 4 N 1018,6 20 60
22.08.2019 12:00:00 29,4 25,4 5 3 N 1018,8 20 60
22.08.2019 11:00:00 28,8 25,1 8 4 E 1018,8 20 60
22.08.2019 10:00:00 28,0 24,5 9 5 N 1018,9 20 60
22.08.2019 09:00:00 26,6 23,5 9 5 ESE 1018,5 20 60
22.08.2019 08:00:00 25,6 23,3 11 6 ESE 1018,4 20 60
22.08.2019 07:00:00 - - - - - - - -
22.08.2019 06:00:00 - - - - - - - -
22.08.2019 05:00:00 - - - - - - - -
22.08.2019 04:00:00 - - - - - - - -
22.08.2019 03:00:00 - - - - - - - -
22.08.2019 02:00:00 - - - - - - - -
22.08.2019 01:00:00 - - - - - - - -
22.08.2019 00:00:00 - - - - - - - -
21.08.2019 23:00:00 - - - - - - - -
21.08.2019 22:00:00 - - - - - - - -
21.08.2019 21:00:00 - - - - - - - -
21.08.2019 20:00:00 26,4 22,3 4 2 N 1017,8 20 12
21.08.2019 19:00:00 28,2 23,0 5 3 N 1017,0 20 60
21.08.2019 18:00:00 29,4 22,9 8 4 N 1016,8 20 60
21.08.2019 17:00:00 30,2 22,6 9 5 N 1017,5 20 60
21.08.2019 16:00:00 30,6 23,0 8 4 N 1017,8 20 60
21.08.2019 15:00:00 30,2 23,7 8 4 N 1018,1 20 60
21.08.2019 14:00:00 29,8 23,3 8 4 N 1018,6 20 60
21.08.2019 13:00:00 29,0 23,0 8 4 N 1018,8 20 48
21.08.2019 12:00:00 27,4 23,3 8 4 N 1019,2 20 18
21.08.2019 11:00:00 26,8 23,3 8 4 N 1018,6 20 24
21.08.2019 10:00:00 26,0 23,0 4 2 N 1019,3 20 12
21.08.2019 09:00:00 25,2 22,4 0 0 N 1019,2 20 36
21.08.2019 08:00:00 24,4 21,6 0 0 N 1019,0 20 60
21.08.2019 07:00:00 - - - - - - - -
21.08.2019 06:00:00 - - - - - - - -
21.08.2019 05:00:00 - - - - - - - -
21.08.2019 04:00:00 - - - - - - - -
21.08.2019 03:00:00 - - - - - - - -
21.08.2019 02:00:00 - - - - - - - -
21.08.2019 01:00:00 - - - - - - - -
21.08.2019 00:00:00 - - - - - - - -
20.08.2019 23:00:00 - - - - - - - -
20.08.2019 22:00:00 - - - - - - - -
20.08.2019 21:00:00 - - - - - - - -
20.08.2019 20:00:00 28,2 23,0 4 2 N 1017,8 20 24
20.08.2019 19:00:00 29,2 22,7 8 4 N 1017,6 20 60
20.08.2019 18:00:00 30,0 23,5 8 4 N 1017,7 20 60
20.08.2019 17:00:00 30,8 24,1 8 4 N 1017,6 20 60
20.08.2019 16:00:00 30,4 24,1 9 5 N 1017,6 20 60
20.08.2019 15:00:00 30,2 24,6 8 4 N 1017,9 20 60
20.08.2019 14:00:00 30,0 24,4 4 2 N 1018,1 20 60
20.08.2019 13:00:00 28,4 23,1 5 3 N 1018,4 20 60
20.08.2019 12:00:00 28,0 23,7 9 5 ESE 1018,1 20 60

tt = Temperatura
td = dewpoint
ff = velocità del vento
dd = direzione del vento
ppp = reduced air pressure
vv = visibility
sd = ore di luce

Stazioni seguenti

WeatherPro
AMSI
MeteoEarth